Location: Palau
(42.3086°N, 3.1507°E)
Time: 21:32:25
(UTC+00:00)

COBE Rocket - Pass Details

Date: 26 May 2020
Orbit: 680 x 782 km, 97.1° (Epoch: 04 July)

Event Time Altitude Azimuth Distance (km) Brightness Sun altitude
Exits shadow 02:46:55 - 168° (SSE) 2,802 6.6 -13.8°
Reaches altitude 10° 02:48:23 10° 169° (SSE) 2,212 6.1 -13.6°
Maximum altitude 02:53:16 86° 257° (WSW) 750 3.9 -13.0°
Drops below altitude 10° 02:58:21 10° 348° (NNW) 2,294 6.9 -12.3°
Sets 03:00:41 0° 349° (NNW) 3,237 7.7 -12.0°
